{"data":{"norad_id":57967,"intl_designator":"2023-151D","name":"STARLINK-30528","alt_names":[],"object_type":"PAYLOAD","status":"ACTIVE","operator":null,"country":"US","launch_date":"2023-09-30","launch_site_code":"AFETR","launch_vehicle":null,"mission":null,"orbit_class":"UNKNOWN","rcs_meters":null,"size_class":null,"mass_kg":null,"dimensions":null,"purposes":["comms"],"wikipedia_slug":null,"has_3d_model":false,"image_url":null,"decayed_at":null,"tle_current":{"epoch":"2026-09-20T15:23:04.416576Z","epoch_age_seconds":125465,"freshness":"FRESH","line1":"1 57967U 23151D   26263.64102334 -.00000070  00000+0  69621-5 0  9994","line2":"2 57967  43.0021 314.8561 0000952 244.5294 115.5459 15.27580033165589","mean_motion":15.27580033,"eccentricity":9.52e-5,"inclination_deg":43.0021,"raan_deg":314.8561,"arg_perigee_deg":244.5294,"mean_anomaly_deg":115.5459,"bstar":6.9621e-6,"rev_number":16558,"period_min":94.266746677226,"perigee_km":482.39581231885,"apogee_km":483.70218213272,"semimajor_km":6861.1859972258,"source":"CELESTRAK","updated_at":"2026-09-21T09:00:33.749117Z"}}}